Date,TemperatureHighF,TemperatureAvgF,TemperatureLowF,DewpointHighF,DewpointAvgF,DewpointLowF,HumidityHigh,HumidityAvg,HumidityLow,PressureMaxIn,PressureMinIn,WindSpeedMaxMPH,WindSpeedAvgMPH,GustSpeedMaxMPH,PrecipitationSumIn
2013-1-1,79.6,72.9,63.5,-99.9,-99.9,-99.9,0,0,100,30.18,30.03,10,4,15,0.00
2013-1-2,81.1,69.9,58.6,-99.9,-99.9,-99.9,0,0,100,30.06,29.96,5,2,8,0.00
2013-1-3,80.9,73.1,66.3,-99.9,-99.9,-99.9,0,0,100,30.10,30.00,6,2,10,0.01
2013-1-4,81.2,71.8,64.0,-99.9,-99.9,-99.9,0,0,100,30.20,30.08,5,2,8,0.00
2013-1-5,75.8,69.7,64.5,-99.9,-99.9,-99.9,0,0,100,30.23,30.13,5,2,8,0.17
2013-1-6,81.2,74.9,63.9,-99.9,-99.9,-99.9,0,0,100,30.17,30.03,6,3,11,0.00
2013-1-7,75.1,71.0,66.8,-99.9,-99.9,-99.9,0,0,100,30.15,30.04,7,2,10,0.25
2013-1-8,82.4,77.2,73.3,-99.9,-99.9,-99.9,0,0,100,30.17,30.05,8,4,14,0.12
2013-1-9,82.6,77.6,74.9,-99.9,-99.9,-99.9,0,0,100,30.25,30.14,8,5,16,0.00
2013-1-10,81.4,76.8,74.6,-99.9,-99.9,-99.9,0,0,100,30.27,30.15,10,6,17,0.00
2013-1-11,81.6,76.4,74.2,-99.9,-99.9,-99.9,0,0,100,30.23,30.12,8,5,13,0.01
2013-1-12,81.2,75.9,73.0,-99.9,-99.9,-99.9,0,0,100,30.15,30.06,7,4,13,0.02
2013-1-13,81.4,75.7,72.8,-99.9,-99.9,-99.9,0,0,100,30.09,30.04,9,5,13,0.00
2013-1-14,80.9,75.5,72.1,-99.9,-99.9,-99.9,0,0,100,30.14,30.08,6,4,12,0.00
2013-1-15,79.2,75.2,72.3,-99.9,-99.9,-99.9,0,0,100,30.11,30.02,7,4,11,0.00
2013-1-16,82.0,75.3,68.6,-99.9,-99.9,-99.9,0,0,100,30.07,29.98,5,3,11,0.12
2013-1-17,80.5,70.9,60.2,-99.9,-99.9,-99.9,0,0,100,30.06,29.94,11,4,16,0.80
2013-1-18,71.5,63.5,52.2,-99.9,-99.9,-99.9,0,0,100,30.21,30.07,8,6,12,0.00
2013-1-19,72.3,69.0,65.2,-99.9,-99.9,-99.9,0,0,100,30.19,30.07,5,2,9,0.44
2013-1-20,78.6,70.6,62.9,-99.9,-99.9,-99.9,0,0,100,30.12,29.98,6,2,8,0.17
2013-1-21,80.1,72.4,65.8,-99.9,-99.9,-99.9,0,0,100,30.04,29.93,6,2,10,0.01
2013-1-22,76.8,68.8,62.1,-99.9,-99.9,-99.9,0,0,100,30.19,29.98,11,6,15,0.00
2013-1-23,76.3,68.7,60.1,-99.9,-99.9,-99.9,0,0,100,30.27,30.17,9,5,14,0.00
2013-1-24,75.6,66.0,58.0,-99.9,-99.9,-99.9,0,0,100,30.26,30.16,7,4,11,0.00
2013-1-25,77.4,66.4,56.7,-99.9,-99.9,-99.9,0,0,100,30.26,30.14,7,2,10,0.00
2013-1-26,77.9,67.9,57.3,-99.9,-99.9,-99.9,0,0,100,30.23,30.13,6,2,9,0.00
2013-1-27,79.4,72.0,63.1,-99.9,-99.9,-99.9,0,0,100,30.26,30.17,7,3,11,0.00
2013-1-28,80.9,75.1,71.6,-99.9,-99.9,-99.9,0,0,100,30.28,30.19,8,6,13,0.00
2013-1-29,79.9,74.9,72.8,-99.9,-99.9,-99.9,0,0,100,30.21,30.10,6,4,11,0.00
2013-1-30,80.3,74.9,71.8,-99.9,-99.9,-99.9,0,0,100,30.10,29.94,9,6,15,0.00
2013-1-31,73.3,67.2,58.6,-99.9,-99.9,-99.9,0,0,100,30.16,29.92,10,5,15,0.00
2013-2-1,74.7,63.0,53.1,-99.9,-99.9,-99.9,0,0,100,30.24,30.14,11,6,16,0.00
2013-2-2,75.3,63.5,54.7,-99.9,-99.9,-99.9,0,0,100,30.23,30.09,5,2,8,0.00
2013-2-3,75.6,61.3,50.5,-99.9,-99.9,-99.9,0,0,100,30.14,30.04,7,2,13,0.00
2013-2-4,75.3,62.1,46.8,-99.9,-99.9,-99.9,0,0,100,30.12,30.00,4,2,8,0.00
2013-2-5,79.2,66.9,51.6,-99.9,-99.9,-99.9,0,0,100,30.05,29.98,5,2,9,0.00
2013-2-6,80.5,70.2,59.2,-99.9,-99.9,-99.9,0,0,100,30.07,30.00,7,2,12,0.00
2013-2-7,81.4,74.6,70.1,-99.9,-99.9,-99.9,0,0,100,30.05,29.92,6,4,11,0.00
2013-2-8,83.8,74.8,68.4,-99.9,-99.9,-99.9,0,0,100,30.00,29.88,8,4,14,0.00
2013-2-9,81.1,71.3,63.7,-99.9,-99.9,-99.9,0,0,100,30.15,29.99,7,3,12,0.00
2013-2-10,77.9,72.1,69.9,-99.9,-99.9,-99.9,0,0,100,30.23,30.12,8,6,14,0.00
2013-2-11,79.6,74.2,70.8,-99.9,-99.9,-99.9,0,0,100,30.19,30.08,6,4,10,0.00
2013-2-12,83.6,75.4,69.9,-99.9,-99.9,-99.9,0,0,100,30.09,29.94,10,5,18,0.00
2013-2-13,82.0,75.7,67.9,-99.9,-99.9,-99.9,0,0,100,29.99,29.86,12,5,19,0.00
2013-2-14,80.9,71.7,63.7,-99.9,-99.9,-99.9,0,0,100,29.98,29.83,12,4,17,0.66
2013-2-15,73.7,67.4,63.9,-99.9,-99.9,-99.9,0,0,100,29.99,29.92,7,3,10,0.38
2013-2-16,74.4,65.3,54.7,-99.9,-99.9,-99.9,0,0,100,30.06,29.85,12,6,20,0.04
2013-2-17,60.1,51.9,43.9,-99.9,-99.9,-99.9,0,0,100,30.28,30.06,12,7,16,0.00
2013-2-18,70.8,59.6,46.1,-99.9,-99.9,-99.9,0,0,100,30.29,30.18,9,5,13,0.02
2013-2-19,79.4,72.4,67.8,-99.9,-99.9,-99.9,0,0,100,30.18,30.06,7,4,12,0.02
2013-2-20,79.2,70.7,62.6,-99.9,-99.9,-99.9,0,0,100,30.09,29.98,7,2,13,0.00
2013-2-21,81.6,75.0,70.4,-99.9,-99.9,-99.9,0,0,100,30.06,29.97,6,2,11,0.00
2013-2-22,82.2,76.3,73.0,-99.9,-99.9,-99.9,0,0,100,30.07,29.99,7,5,15,0.00
2013-2-23,83.0,76.8,73.0,-99.9,-99.9,-99.9,0,0,100,30.03,29.89,10,6,18,0.00
2013-2-24,84.1,76.7,70.3,-99.9,-99.9,-99.9,0,0,100,29.96,29.86,8,3,11,0.00
2013-2-25,84.3,75.8,67.6,-99.9,-99.9,-99.9,0,0,100,29.89,29.78,9,4,15,0.00
2013-2-26,83.0,78.4,75.1,-99.9,-99.9,-99.9,0,0,100,29.87,29.77,11,7,17,0.00
2013-2-27,77.4,70.8,65.2,-99.9,-99.9,-99.9,0,0,100,29.94,29.83,6,3,9,0.38
2013-2-28,69.8,63.8,58.7,-99.9,-99.9,-99.9,0,0,100,29.98,29.88,8,4,12,0.00
2013-3-1,65.3,62.1,58.3,-99.9,-99.9,-99.9,0,0,100,29.97,29.88,7,3,10,0.00
2013-3-2,66.0,57.6,50.8,-99.9,-99.9,-99.9,0,0,100,30.01,29.93,12,6,20,0.00
2013-3-3,62.6,54.3,47.7,-99.9,-99.9,-99.9,0,0,100,30.13,29.94,9,5,18,0.01
2013-3-4,66.8,53.7,41.1,-99.9,-99.9,-99.9,0,0,100,30.18,30.09,10,4,14,0.00
2013-3-5,75.1,62.3,45.7,-99.9,-99.9,-99.9,0,0,100,30.15,30.06,7,2,11,0.00
2013-3-6,78.5,65.3,53.1,-99.9,-99.9,-99.9,0,0,100,30.07,29.91,11,6,17,0.00
2013-3-7,71.6,59.1,45.1,-99.9,-99.9,-99.9,0,0,100,30.16,30.05,7,4,12,0.00
2013-3-8,75.1,64.6,51.6,-99.9,-99.9,-99.9,0,0,100,30.17,30.07,9,4,12,0.00
2013-3-9,76.5,64.9,51.9,-99.9,-99.9,-99.9,0,0,100,30.16,30.08,8,4,11,0.00
2013-3-10,77.9,70.6,62.6,-99.9,-99.9,-99.9,0,0,100,30.14,30.04,9,5,13,0.00
2013-3-11,78.8,72.9,69.1,-99.9,-99.9,-99.9,0,0,100,30.09,29.93,8,5,15,0.00
2013-3-12,79.9,74.3,69.1,-99.9,-99.9,-99.9,0,0,100,29.98,29.88,10,6,14,0.00
2013-3-13,76.5,66.7,57.6,-99.9,-99.9,-99.9,0,0,100,30.09,29.95,10,5,15,0.00
2013-3-14,71.6,61.2,51.1,-99.9,-99.9,-99.9,0,0,100,30.17,30.06,12,6,17,0.00
2013-3-15,74.2,63.0,52.5,-99.9,-99.9,-99.9,0,0,100,30.22,30.12,8,4,12,0.00
2013-3-16,76.7,64.8,52.0,-99.9,-99.9,-99.9,0,0,100,30.17,30.06,6,2,10,0.00
2013-3-17,78.3,69.0,59.3,-99.9,-99.9,-99.9,0,0,100,30.12,30.00,6,2,10,0.00
2013-3-18,81.1,73.3,68.3,-99.9,-99.9,-99.9,0,0,100,30.06,29.94,9,4,18,0.09
2013-3-19,78.8,72.6,66.6,-99.9,-99.9,-99.9,0,0,100,29.98,29.78,11,3,16,0.01
2013-3-20,81.4,71.7,62.1,-99.9,-99.9,-99.9,0,0,100,29.95,29.78,10,2,15,0.01
2013-3-21,75.1,66.6,56.5,-99.9,-99.9,-99.9,0,0,100,29.92,29.81,8,4,12,0.00
2013-3-22,78.3,67.3,52.3,-99.9,-99.9,-99.9,0,0,100,29.98,29.88,6,3,12,0.00
2013-3-23,84.1,77.4,72.3,-99.9,-99.9,-99.9,0,0,100,29.96,29.78,13,5,19,0.03
2013-3-24,91.4,80.7,74.6,-99.9,-99.9,-99.9,0,0,100,29.86,29.65,15,7,22,0.01
2013-3-25,79.6,74.2,65.2,-99.9,-99.9,-99.9,0,0,100,29.96,29.72,9,5,15,0.06
2013-3-26,68.9,61.5,52.6,-99.9,-99.9,-99.9,0,0,100,30.18,29.96,11,7,16,0.00
2013-3-27,69.3,56.5,45.5,-99.9,-99.9,-99.9,0,0,100,30.21,30.14,10,5,15,0.00
2013-3-28,73.7,61.2,50.8,-99.9,-99.9,-99.9,0,0,100,30.23,30.14,7,4,12,0.00
2013-3-29,77.2,65.2,52.6,-99.9,-99.9,-99.9,0,0,100,30.26,30.17,8,4,11,0.00
2013-3-30,77.4,69.7,63.1,-99.9,-99.9,-99.9,0,0,100,30.23,30.12,6,3,10,0.00
2013-3-31,81.1,73.4,67.9,-99.9,-99.9,-99.9,0,0,100,30.17,30.01,8,4,13,0.00
2013-4-1,85.7,76.1,71.8,-99.9,-99.9,-99.9,0,0,100,30.03,29.91,12,5,20,0.00
2013-4-2,83.2,74.2,66.4,-99.9,-99.9,-99.9,0,0,100,30.04,29.96,6,4,10,0.00
2013-4-3,83.8,76.7,72.0,-99.9,-99.9,-99.9,0,0,100,30.04,29.96,6,3,12,0.00
2013-4-4,83.6,75.9,69.6,-99.9,-99.9,-99.9,0,0,100,30.02,29.87,10,5,16,1.02
2013-4-5,73.7,69.0,65.8,-99.9,-99.9,-99.9,0,0,100,29.95,29.80,9,4,18,0.76
2013-4-6,79.0,69.4,59.2,-99.9,-99.9,-99.9,0,0,100,30.06,29.90,9,6,13,0.01
2013-4-7,81.1,74.0,70.9,-99.9,-99.9,-99.9,0,0,100,30.11,30.00,8,5,14,0.00
2013-4-8,82.4,74.7,65.3,-99.9,-99.9,-99.9,0,0,100,30.10,30.02,6,3,10,0.00
2013-4-9,83.2,76.4,73.0,-99.9,-99.9,-99.9,0,0,100,30.12,30.02,8,5,15,0.00
2013-4-10,85.1,78.3,73.9,-99.9,-99.9,-99.9,0,0,100,30.07,29.97,7,5,13,0.00
2013-4-11,84.1,78.6,75.4,-99.9,-99.9,-99.9,0,0,100,29.99,29.87,7,6,16,0.00
2013-4-12,87.0,79.5,77.4,-99.9,-99.9,-99.9,0,0,100,29.92,29.84,13,6,18,0.07
2013-4-13,82.4,77.1,73.9,-99.9,-99.9,-99.9,0,0,100,29.94,29.85,8,3,15,0.28
2013-4-14,86.5,79.6,73.2,-99.9,-99.9,-99.9,0,0,100,29.93,29.86,6,3,11,0.00
2013-4-15,87.0,77.7,71.1,-99.9,-99.9,-99.9,0,0,100,30.03,29.89,12,3,18,1.34
2013-4-16,87.4,77.9,70.6,-99.9,-99.9,-99.9,0,0,100,30.09,29.99,7,3,11,0.01
2013-4-17,84.7,78.8,75.1,-99.9,-99.9,-99.9,0,0,100,30.07,29.98,8,4,11,0.00
2013-4-18,87.2,80.2,76.0,-99.9,-99.9,-99.9,0,0,100,30.03,29.95,7,4,15,0.00
2013-4-19,87.6,81.6,77.9,-99.9,-99.9,-99.9,0,0,100,30.01,29.93,8,5,12,0.00
2013-4-20,87.4,78.5,72.7,-99.9,-99.9,-99.9,0,0,100,30.04,29.91,13,4,16,1.47
2013-4-21,85.3,77.9,72.7,-99.9,-99.9,-99.9,0,0,100,30.06,29.95,9,3,14,0.00
2013-4-22,83.4,74.9,69.3,-99.9,-99.9,-99.9,0,0,100,30.01,29.89,10,2,11,0.97
2013-4-23,83.6,75.1,67.4,-99.9,-99.9,-99.9,0,0,100,30.06,29.92,11,6,17,0.01
2013-4-24,83.8,77.6,72.8,-99.9,-99.9,-99.9,0,0,100,30.10,30.00,8,4,11,0.00
2013-4-25,83.0,76.4,71.6,-99.9,-99.9,-99.9,0,0,100,30.17,30.05,6,4,11,0.00
2013-4-26,83.6,76.5,70.8,-99.9,-99.9,-99.9,0,0,100,30.18,30.09,7,4,14,0.00
2013-4-27,84.3,77.4,72.8,-99.9,-99.9,-99.9,0,0,100,30.17,30.05,7,5,14,0.00
2013-4-28,84.9,77.5,73.3,-99.9,-99.9,-99.9,0,0,100,30.09,29.96,7,6,14,0.00
2013-4-29,84.3,78.0,74.7,-99.9,-99.9,-99.9,0,0,100,30.00,29.90,7,4,10,0.00
2013-4-30,82.8,76.8,71.5,-99.9,-99.9,-99.9,0,0,100,29.97,29.89,8,3,10,0.08
2013-5-1,85.3,76.7,70.8,-99.9,-99.9,-99.9,0,0,100,29.97,29.89,6,2,10,0.27
2013-5-2,78.3,73.3,67.8,-99.9,-99.9,-99.9,0,0,100,29.92,29.77,16,4,17,4.36
2013-5-3,85.9,74.6,69.1,-99.9,-99.9,-99.9,0,0,100,29.79,29.66,8,3,11,0.20
2013-5-4,88.2,76.4,67.9,-99.9,-99.9,-99.9,0,0,100,29.77,29.65,8,4,12,0.01
2013-5-5,81.8,73.7,63.4,-99.9,-99.9,-99.9,0,0,100,29.90,29.73,8,5,12,0.00
2013-5-6,83.4,71.0,57.6,-99.9,-99.9,-99.9,0,0,100,29.98,29.89,6,2,8,0.00
2013-5-7,84.5,72.6,62.0,-99.9,-99.9,-99.9,0,0,100,30.04,29.95,8,3,12,0.00
2013-5-8,83.6,73.3,62.0,-99.9,-99.9,-99.9,0,0,100,30.10,30.01,6,2,9,0.00
2013-5-9,87.0,76.7,63.9,-99.9,-99.9,-99.9,0,0,100,30.11,30.04,6,2,11,0.00
2013-5-10,87.8,80.9,73.3,-99.9,-99.9,-99.9,0,0,100,30.11,30.00,7,3,10,0.01
2013-5-11,88.0,80.2,73.2,-99.9,-99.9,-99.9,0,0,100,30.05,29.96,9,4,15,0.00
2013-5-12,88.6,78.9,72.1,-99.9,-99.9,-99.9,0,0,100,30.04,29.93,10,3,15,1.02
2013-5-13,72.5,72.5,72.5,-99.9,-99.9,-99.9,0,0,100,30.03,30.03,1,1,3,1.02
2013-5-16,81.6,77.1,75.1,-99.9,-99.9,-99.9,0,0,100,30.03,30.01,6,4,11,0.00
2013-5-17,86.7,79.5,74.4,-99.9,-99.9,-99.9,0,0,100,30.06,29.98,7,3,12,0.63
2013-5-18,86.5,79.5,74.4,-99.9,-99.9,-99.9,0,0,100,30.07,30.00,6,3,11,0.67
2013-5-19,86.3,80.2,76.1,-99.9,-99.9,-99.9,0,0,100,30.06,29.97,7,4,11,0.00
2013-5-20,82.0,77.1,72.3,-99.9,-99.9,-99.9,0,0,100,30.04,29.94,8,3,13,1.98
2013-5-21,83.2,76.8,71.8,-99.9,-99.9,-99.9,0,0,100,30.01,29.90,8,3,12,0.20
2013-5-22,85.3,77.1,73.0,-99.9,-99.9,-99.9,0,0,100,29.95,29.86,7,2,13,0.49
2013-5-23,91.2,81.2,73.9,-99.9,-99.9,-99.9,0,0,100,29.97,29.88,7,3,13,0.00
2013-5-24,88.8,82.3,76.3,-99.9,-99.9,-99.9,0,0,100,30.02,29.91,7,2,11,0.00
2013-5-25,86.7,80.2,73.2,-99.9,-99.9,-99.9,0,0,100,30.12,30.01,8,5,17,0.02
2013-5-26,86.7,79.8,75.8,-99.9,-99.9,-99.9,0,0,100,30.14,30.07,8,5,14,0.00
2013-5-27,87.0,79.4,74.9,-99.9,-99.9,-99.9,0,0,100,30.12,30.03,9,6,17,0.40
2013-5-28,84.3,78.4,75.1,-99.9,-99.9,-99.9,0,0,100,30.08,30.01,10,6,16,0.17
2013-5-29,80.3,76.1,72.3,-99.9,-99.9,-99.9,0,0,100,30.06,30.00,12,6,23,2.22
2013-5-30,83.4,78.3,74.0,-99.9,-99.9,-99.9,0,0,100,30.04,29.97,12,8,21,0.13
2013-5-31,84.5,78.8,75.8,-99.9,-99.9,-99.9,0,0,100,30.03,29.97,10,6,16,0.43
2013-6-1,84.3,77.9,74.4,-99.9,-99.9,-99.9,0,0,100,30.00,29.93,7,2,11,0.45
2013-6-2,87.4,78.9,71.8,-99.9,-99.9,-99.9,0,0,100,29.97,29.89,8,2,10,0.01
2013-6-3,87.6,78.7,72.0,-99.9,-99.9,-99.9,0,0,100,30.00,29.88,8,2,12,0.19
2013-6-4,85.7,78.6,73.5,-99.9,-99.9,-99.9,0,0,100,30.01,29.92,6,1,9,0.13
2013-6-5,84.0,81.1,79.4,-99.9,-99.9,-99.9,0,0,100,29.99,29.86,7,3,11,0.01
2013-6-6,87.2,80.4,76.0,-99.9,-99.9,-99.9,0,0,100,29.87,29.75,13,7,24,1.76
2013-6-7,91.4,78.0,74.6,-99.9,-99.9,-99.9,0,0,100,29.96,29.81,10,4,15,0.51
2013-6-8,88.6,80.1,74.7,-99.9,-99.9,-99.9,0,0,100,30.07,29.93,8,2,11,0.00
2013-6-9,88.6,82.9,79.4,-99.9,-99.9,-99.9,0,0,100,30.08,30.00,8,5,14,0.01
2013-6-10,88.8,82.6,79.9,-99.9,-99.9,-99.9,0,0,100,30.06,29.97,8,4,13,0.00
2013-6-11,87.8,81.8,78.5,-99.9,-99.9,-99.9,0,0,100,30.06,29.97,6,2,14,1.46
2013-6-12,88.4,81.0,77.2,-99.9,-99.9,-99.9,0,0,100,30.04,29.98,5,1,8,0.00
2013-6-13,89.0,81.3,74.7,-99.9,-99.9,-99.9,0,0,100,30.01,29.91,6,2,11,0.00
2013-6-14,93.4,81.1,74.4,-99.9,-99.9,-99.9,0,0,100,29.94,29.84,9,2,13,0.10
2013-6-15,89.5,81.9,74.6,-99.9,-99.9,-99.9,0,0,100,30.02,29.89,6,2,9,0.00
2013-6-16,89.7,83.0,74.4,-99.9,-99.9,-99.9,0,0,100,30.06,29.98,6,2,10,0.15
2013-6-17,90.7,84.8,80.3,-99.9,-99.9,-99.9,0,0,100,30.05,29.97,5,2,9,0.00
2013-6-18,90.3,84.4,78.1,-99.9,-99.9,-99.9,0,0,100,30.04,29.95,6,3,8,0.00
2013-6-19,91.0,84.4,78.6,-99.9,-99.9,-99.9,0,0,100,30.01,29.95,5,2,10,0.00
2013-6-20,89.7,81.7,71.3,-99.9,-99.9,-99.9,0,0,100,30.05,29.98,12,2,12,1.22
2013-6-21,89.9,84.4,80.7,-99.9,-99.9,-99.9,0,0,100,30.07,30.00,6,3,8,0.00
2013-6-22,90.3,84.4,79.8,-99.9,-99.9,-99.9,0,0,100,30.06,30.00,6,4,10,0.00
2013-6-23,89.5,83.3,76.5,-99.9,-99.9,-99.9,0,0,100,30.09,30.01,8,4,11,0.00
2013-6-24,89.9,83.9,78.8,-99.9,-99.9,-99.9,0,0,100,30.12,30.04,8,5,13,0.19
2013-6-26,79.6,79.6,79.6,-99.9,-99.9,-99.9,0,0,100,29.91,29.91,3,3,5,0.00
2013-6-27,79.6,79.6,79.6,-99.9,-99.9,-99.9,0,0,100,29.91,29.91,3,3,5,0.00
2013-6-28,79.6,79.6,79.6,-99.9,-99.9,-99.9,0,0,100,29.91,29.91,3,3,5,0.00
2013-6-29,79.6,79.6,79.6,-99.9,-99.9,-99.9,0,0,100,29.91,29.91,3,3,5,0.00
2013-6-30,79.8,79.6,79.6,-99.9,-99.9,-99.9,0,0,100,29.91,29.91,4,3,5,0.00
2013-7-1,89.3,82.8,75.4,-99.9,-99.9,-99.9,0,0,100,30.00,29.89,12,4,21,0.26
2013-7-2,83.2,81.1,78.6,-99.9,-99.9,-99.9,0,0,100,30.07,30.03,6,2,10,0.00
2013-7-3,89.5,82.2,77.9,-99.9,-99.9,-99.9,0,0,100,30.09,30.01,8,4,11,0.16
2013-7-4,90.1,83.7,78.1,-99.9,-99.9,-99.9,0,0,100,30.12,30.04,9,5,15,0.00
2013-7-5,86.5,81.7,77.9,-99.9,-99.9,-99.9,0,0,100,30.11,30.02,9,5,13,0.35
2013-7-6,89.0,83.0,79.8,-99.9,-99.9,-99.9,0,0,100,30.09,30.00,9,6,14,0.04
2013-7-7,90.1,83.4,77.2,-99.9,-99.9,-99.9,0,0,100,30.06,29.98,7,5,11,0.00
2013-7-8,89.7,82.6,79.8,-99.9,-99.9,-99.9,0,0,100,30.11,30.04,8,4,11,0.00
2013-7-9,87.8,81.3,74.7,-99.9,-99.9,-99.9,0,0,100,30.10,30.01,8,3,11,0.02
2013-7-10,84.9,78.8,71.5,-99.9,-99.9,-99.9,0,0,100,30.05,29.97,6,2,12,1.17
2013-7-11,89.3,82.4,79.0,-99.9,-99.9,-99.9,0,0,100,30.01,29.91,5,2,9,0.00
2013-7-12,89.9,79.9,76.1,-99.9,-99.9,-99.9,0,0,100,29.93,29.87,12,1,14,0.00
2013-7-13,87.2,76.5,73.0,-99.9,-99.9,-99.9,0,0,100,30.00,29.89,6,1,9,1.44
2013-7-14,89.0,79.2,73.0,-99.9,-99.9,-99.9,0,0,100,30.06,29.95,8,3,11,0.56
2013-7-15,88.8,80.0,73.5,-99.9,-99.9,-99.9,0,0,100,30.06,29.98,8,3,14,0.13
2013-7-16,84.1,78.6,74.0,-99.9,-99.9,-99.9,0,0,100,30.12,30.01,12,6,20,0.26
2013-7-17,83.0,77.7,74.2,-99.9,-99.9,-99.9,0,0,100,30.12,30.02,9,3,10,15.98
2013-7-18,82.8,76.7,72.8,-99.9,-99.9,-99.9,0,0,100,30.09,30.03,9,1,12,0.92
2013-7-19,87.4,80.8,73.9,-99.9,-99.9,-99.9,0,0,100,30.10,30.01,5,2,10,0.69
2013-7-20,88.0,82.3,77.7,-99.9,-99.9,-99.9,0,0,100,30.09,30.00,9,3,13,0.00
2013-7-21,89.7,81.3,76.0,-99.9,-99.9,-99.9,0,0,100,30.12,30.01,4,1,9,0.01
2013-7-22,89.5,83.4,78.6,-99.9,-99.9,-99.9,0,0,100,30.11,30.03,6,2,10,0.00
2013-7-23,90.1,83.5,75.3,-99.9,-99.9,-99.9,0,0,100,30.07,29.94,7,3,14,0.00
2013-7-24,94.5,82.5,77.4,-99.9,-99.9,-99.9,0,0,100,29.99,29.87,7,3,13,0.00
2013-7-25,93.8,84.0,74.0,-99.9,-99.9,-99.9,0,0,100,29.98,29.88,6,3,11,0.00
2013-7-26,93.6,82.9,77.6,-99.9,-99.9,-99.9,0,0,100,29.98,29.90,9,4,13,0.34
2013-7-27,88.0,79.6,76.8,-99.9,-99.9,-99.9,0,0,100,29.97,29.90,7,1,8,0.29
2013-7-28,88.0,80.5,76.1,-99.9,-99.9,-99.9,0,0,100,30.04,29.92,5,1,7,0.10
2013-7-29,91.8,83.2,76.5,-99.9,-99.9,-99.9,0,0,100,30.10,29.98,8,2,14,0.09
2013-7-30,90.7,84.0,74.2,-99.9,-99.9,-99.9,0,0,100,30.12,30.04,6,3,10,6.96
2013-7-31,91.0,84.9,81.1,-99.9,-99.9,-99.9,0,0,100,30.07,29.97,7,4,11,2.65
2013-8-1,89.9,84.1,80.1,-99.9,-99.9,-99.9,0,0,100,30.03,29.91,7,4,13,0.00
2013-8-2,88.0,81.4,74.6,-99.9,-99.9,-99.9,0,0,100,30.01,29.88,8,2,20,0.32
2013-8-3,86.3,77.9,73.2,-99.9,-99.9,-99.9,0,0,100,30.12,30.00,10,1,17,0.55
2013-8-4,92.1,81.2,75.1,-99.9,-99.9,-99.9,0,0,100,30.08,29.94,8,1,12,0.06
2013-8-5,90.3,80.7,75.4,-99.9,-99.9,-99.9,0,0,100,30.00,29.91,5,1,10,0.19
2013-8-6,90.5,82.1,75.6,-99.9,-99.9,-99.9,0,0,100,29.95,29.86,4,1,9,0.00
2013-8-7,89.9,83.7,77.4,-99.9,-99.9,-99.9,0,0,100,29.95,29.87,7,2,11,0.00
2013-8-8,92.1,85.0,81.8,-99.9,-99.9,-99.9,0,0,100,29.98,29.89,8,4,13,0.01
2013-8-9,90.1,83.1,80.5,-99.9,-99.9,-99.9,0,0,100,30.03,29.92,8,4,14,0.02
2013-8-10,92.3,85.2,80.7,-99.9,-99.9,-99.9,0,0,100,30.07,30.00,8,4,13,0.00
2013-8-11,91.8,85.5,81.8,-99.9,-99.9,-99.9,0,0,100,30.09,30.03,7,4,12,0.00
2013-8-12,91.8,84.6,80.9,-99.9,-99.9,-99.9,0,0,100,30.07,29.97,6,3,10,0.00
2013-8-13,92.1,85.4,81.2,-99.9,-99.9,-99.9,0,0,100,30.01,29.92,4,2,10,0.00
2013-8-14,92.1,85.1,81.1,-99.9,-99.9,-99.9,0,0,100,29.98,29.89,4,2,10,0.00
2013-8-15,87.2,81.3,75.4,-99.9,-99.9,-99.9,0,0,100,30.03,29.93,9,2,9,0.96
2013-8-16,91.8,85.0,79.6,-99.9,-99.9,-99.9,0,0,100,30.01,29.95,6,2,9,0.00
2013-8-17,91.6,85.9,82.2,-99.9,-99.9,-99.9,0,0,100,30.04,29.97,8,3,12,0.00
2013-8-18,91.4,85.1,81.2,-99.9,-99.9,-99.9,0,0,100,30.04,29.95,8,5,15,0.06
2013-8-19,92.3,85.6,82.0,-99.9,-99.9,-99.9,0,0,100,30.04,29.93,8,4,14,0.00
2013-8-20,91.8,85.1,80.3,-99.9,-99.9,-99.9,0,0,100,30.03,29.95,8,4,15,0.00
2013-8-21,89.9,84.3,80.1,-99.9,-99.9,-99.9,0,0,100,30.04,29.96,9,5,14,0.23
2013-8-22,91.4,85.6,79.8,-99.9,-99.9,-99.9,0,0,100,30.03,29.92,7,4,15,0.00
2013-8-23,91.8,84.1,81.2,-99.9,-99.9,-99.9,0,0,100,29.98,29.90,8,2,11,0.04
2013-8-24,92.1,85.3,78.6,-99.9,-99.9,-99.9,0,0,100,30.08,29.94,6,3,11,0.12
2013-8-25,87.0,81.2,75.1,-99.9,-99.9,-99.9,0,0,100,30.12,30.00,7,2,10,0.38
2013-8-26,90.3,81.9,75.3,-99.9,-99.9,-99.9,0,0,100,30.08,29.97,7,2,10,0.03
2013-8-27,84.3,78.1,72.8,-99.9,-99.9,-99.9,0,0,100,30.02,29.93,6,1,8,0.69
2013-8-28,88.2,82.0,78.3,-99.9,-99.9,-99.9,0,0,100,30.00,29.92,5,2,8,0.06
2013-8-29,89.7,81.9,73.5,-99.9,-99.9,-99.9,0,0,100,29.99,29.89,6,2,9,0.00
2013-8-30,90.3,83.2,74.6,-99.9,-99.9,-99.9,0,0,100,29.97,29.86,7,2,11,0.00
2013-8-31,90.5,81.0,75.1,-99.9,-99.9,-99.9,0,0,100,29.95,29.88,5,2,10,0.03
2013-9-1,89.5,80.1,73.5,-99.9,-99.9,-99.9,0,0,100,29.96,29.89,4,1,7,0.01
2013-9-2,92.5,79.2,74.2,-99.9,-99.9,-99.9,0,0,100,29.98,29.91,8,1,10,0.05
2013-9-3,90.7,80.7,71.8,-99.9,-99.9,-99.9,0,0,100,29.98,29.90,6,2,12,0.01
2013-9-4,85.3,83.0,79.8,-99.9,-99.9,-99.9,0,0,100,30.03,29.91,7,1,10,0.02
2013-9-5,91.8,84.7,81.8,-99.9,-99.9,-99.9,0,0,100,30.03,29.96,6,3,9,0.03
2013-9-6,91.8,85.4,81.4,-99.9,-99.9,-99.9,0,0,100,30.00,29.89,6,3,10,0.00
2013-9-7,84.9,79.1,74.7,-99.9,-99.9,-99.9,0,0,100,29.95,29.86,9,1,12,0.14
2013-9-8,88.8,79.8,72.8,-99.9,-99.9,-99.9,0,0,100,29.91,29.82,6,1,8,0.00
2013-9-9,90.3,82.7,74.9,-99.9,-99.9,-99.9,0,0,100,29.96,29.86,7,3,11,0.00
2013-9-10,91.2,83.9,80.3,-99.9,-99.9,-99.9,0,0,100,30.00,29.92,9,4,13,0.00
2013-9-11,82.8,80.6,76.5,-99.9,-99.9,-99.9,0,0,100,30.03,29.93,8,3,11,0.19
2013-9-12,85.9,80.6,76.8,-99.9,-99.9,-99.9,0,0,100,29.98,29.86,3,1,8,0.01
2013-9-13,90.1,81.9,74.6,-99.9,-99.9,-99.9,0,0,100,29.87,29.77,6,2,9,0.00
2013-9-14,90.7,83.4,75.1,-99.9,-99.9,-99.9,0,0,100,29.93,29.79,6,2,10,0.00
2013-9-15,86.3,81.7,78.1,-99.9,-99.9,-99.9,0,0,100,30.01,29.89,10,3,14,0.04
2013-9-16,87.4,81.6,79.0,-99.9,-99.9,-99.9,0,0,100,30.01,29.92,8,4,14,0.14
2013-9-17,81.2,79.9,77.0,-99.9,-99.9,-99.9,0,0,100,30.00,29.88,7,4,17,0.15
2013-9-18,87.2,81.1,76.7,-99.9,-99.9,-99.9,0,0,100,29.98,29.88,5,2,7,0.11
2013-9-19,87.3,81.2,74.5,77.5,73.5,-99.9,94,80,71,29.97,29.89,8,4,13,0.11
2013-9-20,86.1,82.1,78.1,74.9,70.9,68.2,87,69,58,29.95,29.86,9,5,12,0.00
2013-9-21,86.3,82.2,79.4,74.3,72.6,70.8,80,73,65,29.88,29.74,5,3,11,0.00
2013-9-22,90.3,83.0,77.0,75.1,-80.1,-99.9,92,9,78,29.83,29.72,7,2,11,0.25
2013-9-23,87.8,80.6,76.5,-99.9,-99.9,-99.9,0,0,100,29.94,29.82,11,1,15,0.50
2013-9-24,90.5,81.3,76.3,-99.9,-99.9,-99.9,0,0,100,29.93,29.84,10,3,13,0.03
2013-9-25,89.3,80.3,73.2,-99.9,-99.9,-99.9,0,0,100,29.88,29.77,8,2,14,0.20
2013-9-26,89.5,80.5,76.5,-99.9,-99.9,-99.9,0,0,100,29.83,29.76,9,3,13,0.44
2013-9-27,88.0,80.9,75.1,-99.9,-99.9,-99.9,0,0,100,29.88,29.79,9,3,13,0.00
2013-9-28,88.0,80.1,73.0,-99.9,-99.9,-99.9,0,0,100,29.92,29.84,9,3,14,0.16
2013-9-29,88.6,81.3,73.9,-99.9,-99.9,-99.9,0,0,100,29.92,29.84,6,3,9,0.00
2013-9-30,88.4,81.9,76.7,-99.9,-99.9,-99.9,0,0,100,29.97,29.87,5,2,9,0.00
2013-10-1,88.4,82.5,76.7,-99.9,-99.9,-99.9,0,0,100,29.99,29.92,7,4,12,0.00
2013-10-2,87.4,82.6,80.1,-99.9,-99.9,-99.9,0,0,100,30.00,29.93,7,5,14,0.00
2013-10-3,88.6,82.2,77.9,-99.9,-99.9,-99.9,0,0,100,30.01,29.91,7,3,11,0.00
2013-10-4,88.4,82.3,78.3,-99.9,-99.9,-99.9,0,0,100,30.01,29.94,5,3,9,0.00
2013-10-5,88.8,81.4,72.3,-99.9,-99.9,-99.9,0,0,100,29.99,29.89,6,2,10,0.00
2013-10-6,88.4,81.8,76.8,-99.9,-99.9,-99.9,0,0,100,29.93,29.83,5,2,9,0.00
2013-10-7,91.4,79.4,72.5,-99.9,-99.9,-99.9,0,0,100,29.86,29.77,13,2,27,0.06
2013-10-8,90.5,80.5,75.6,-99.9,-99.9,-99.9,0,0,100,29.90,29.81,6,2,13,0.01
2013-10-9,85.3,77.7,72.0,-99.9,-99.9,-99.9,0,0,100,29.95,29.87,9,3,11,0.00
2013-10-10,87.4,80.0,72.1,-99.9,-99.9,-99.9,0,0,100,29.97,29.90,8,5,12,0.00
2013-10-11,86.5,80.1,71.5,-99.9,-99.9,-99.9,0,0,100,29.97,29.90,7,4,13,0.00
2013-10-12,86.5,78.2,67.8,-99.9,-99.9,-99.9,0,0,100,29.99,29.91,6,2,9,0.00
2013-10-13,86.1,79.4,72.0,-99.9,-99.9,-99.9,0,0,100,30.01,29.93,8,3,12,0.00
2013-10-14,87.4,79.4,69.8,-99.9,-99.9,-99.9,0,0,100,29.98,29.87,6,3,11,0.00
2013-10-15,86.5,79.4,71.8,-99.9,-99.9,-99.9,0,0,100,29.92,29.83,7,3,11,0.00
2013-10-16,86.7,78.7,72.3,-99.9,-99.9,-99.9,0,0,100,29.92,29.85,5,2,9,0.00
2013-10-17,87.6,80.2,71.1,-99.9,-99.9,-99.9,0,0,100,29.93,29.86,5,2,10,0.00
2013-10-18,88.8,81.1,73.3,-99.9,-99.9,-99.9,0,0,100,29.95,29.87,7,2,11,0.00
2013-10-19,89.3,82.4,77.9,-99.9,-99.9,-99.9,0,0,100,29.93,29.84,5,2,10,0.00
2013-10-20,88.4,81.9,77.6,-99.9,-99.9,-99.9,0,0,100,29.93,29.84,6,2,10,0.00
2013-10-21,90.3,83.8,79.0,-99.9,-99.9,-99.9,0,0,100,29.97,29.87,5,2,9,0.00
2013-10-22,91.0,83.2,78.1,-99.9,-99.9,-99.9,0,0,100,29.93,29.80,8,3,14,0.00
2013-10-23,90.3,80.8,75.8,76.3,-59.9,-99.9,94,21,89,29.92,29.78,10,4,14,0.00
2013-10-24,80.7,76.5,70.8,-99.9,-99.9,-99.9,0,0,100,30.06,29.90,8,5,14,0.00
2013-10-25,82.8,77.6,70.1,-99.9,-99.9,-99.9,0,0,100,30.11,30.03,9,6,15,0.00
2013-10-26,84.5,78.2,71.1,-99.9,-99.9,-99.9,0,0,100,30.11,30.01,7,4,13,0.00
2013-10-27,84.7,74.5,64.8,-99.9,-99.9,-99.9,0,0,100,30.06,29.98,5,3,12,0.00
2013-10-28,85.1,78.8,74.7,-99.9,-99.9,-99.9,0,0,100,30.10,30.01,6,4,9,0.00
2013-10-29,85.7,79.5,74.4,-99.9,-99.9,-99.9,0,0,100,30.14,30.05,8,5,15,0.00
2013-10-30,85.5,79.5,76.7,-99.9,-99.9,-99.9,0,0,100,30.15,30.04,7,6,13,0.00
2013-10-31,85.5,79.9,74.9,-99.9,-99.9,-99.9,0,0,100,30.07,29.95,7,5,12,0.12
2013-11-1,87.2,81.2,78.5,-99.9,-99.9,-99.9,0,0,100,29.98,29.85,6,3,14,0.00
2013-11-2,89.7,79.5,70.3,-99.9,-99.9,-99.9,0,0,100,29.90,29.76,7,3,11,0.00
2013-11-3,82.2,74.8,66.9,-99.9,-99.9,-99.9,0,0,100,29.98,29.86,11,7,21,0.00
2013-11-4,81.2,76.8,74.4,-99.9,-99.9,-99.9,0,0,100,30.04,29.97,13,9,18,0.03
2013-11-5,81.6,78.6,74.9,-99.9,-99.9,-99.9,0,0,100,30.06,29.98,11,8,20,0.00
2013-11-6,85.3,79.5,76.1,-99.9,-99.9,-99.9,0,0,100,30.03,29.95,9,5,17,0.00
2013-11-7,85.3,77.0,69.8,-99.9,-99.9,-99.9,0,0,100,29.98,29.88,8,3,9,0.00
2013-11-8,84.9,77.1,72.0,-99.9,-99.9,-99.9,0,0,100,30.00,29.90,12,6,17,0.45
2013-11-9,79.2,76.5,74.0,-99.9,-99.9,-99.9,0,0,100,30.08,29.98,11,8,18,1.31
2013-11-10,84.3,78.8,74.7,-99.9,-99.9,-99.9,0,0,100,30.09,30.01,8,5,13,0.00
2013-11-11,84.3,78.9,76.8,-99.9,-99.9,-99.9,0,0,100,30.08,30.01,6,4,10,0.13
2013-11-12,84.1,78.4,73.7,-99.9,-99.9,-99.9,0,0,100,30.04,29.93,6,3,9,0.00
2013-11-13,77.0,72.5,70.3,-99.9,-99.9,-99.9,0,0,100,30.18,29.96,14,9,23,0.06
2013-11-14,78.3,72.6,67.3,-99.9,-99.9,-99.9,0,0,100,30.21,30.12,11,8,16,0.02
2013-11-15,82.2,77.1,73.3,-99.9,-99.9,-99.9,0,0,100,30.12,30.00,8,6,15,0.02
2013-11-16,81.6,78.3,72.8,-99.9,-99.9,-99.9,0,0,100,30.07,30.00,8,5,15,0.05
2013-11-17,84.1,79.4,75.6,-99.9,-99.9,-99.9,0,0,100,30.06,29.97,7,4,13,0.00
2013-11-18,85.3,78.5,74.0,-99.9,-99.9,-99.9,0,0,100,30.01,29.89,4,1,6,0.00
2013-11-19,83.4,75.3,72.5,-99.9,-99.9,-99.9,0,0,100,29.92,29.83,9,2,13,0.28
2013-11-20,84.0,76.2,69.8,-99.9,-99.9,-99.9,0,0,100,30.04,29.90,5,1,7,0.00
2013-11-21,80.7,76.2,72.1,-99.9,-99.9,-99.9,0,0,100,30.12,30.02,8,4,16,0.23
2013-11-22,82.4,77.9,75.6,-99.9,-99.9,-99.9,0,0,100,30.14,30.05,8,7,15,0.00
2013-11-23,83.6,78.1,75.4,-99.9,-99.9,-99.9,0,0,100,30.06,29.95,7,4,13,0.00
2013-11-24,81.8,74.6,69.3,-99.9,-99.9,-99.9,0,0,100,30.11,29.97,13,7,25,0.20
2013-11-25,75.4,73.0,72.0,-99.9,-99.9,-99.9,0,0,100,30.17,30.09,12,9,23,0.20
2013-12-1,76.8,76.8,76.8,-99.9,-99.9,-99.9,0,0,100,30.09,30.09,2,2,4,0.00
2013-12-2,76.8,76.8,76.8,-99.9,-99.9,-99.9,0,0,100,30.09,30.09,2,2,4,0.00
2013-12-3,76.8,76.8,76.8,-99.9,-99.9,-99.9,0,0,100,30.09,30.09,2,2,4,0.00
2013-12-4,76.8,76.8,76.8,-99.9,-99.9,-99.9,0,0,100,30.09,30.09,2,2,4,0.00
2013-12-5,76.8,76.7,76.0,-99.9,-99.9,-99.9,0,0,100,30.11,30.06,7,3,15,0.00
2013-12-6,83.0,77.4,71.1,-99.9,-99.9,-99.9,0,0,100,30.15,30.07,8,2,14,0.00
2013-12-7,83.8,77.6,71.3,-99.9,-99.9,-99.9,0,0,100,30.16,30.10,7,4,14,0.00
2013-12-8,83.6,78.0,71.8,-99.9,-99.9,-99.9,0,0,100,30.18,30.09,10,4,18,0.00
2013-12-9,84.3,78.6,76.0,-99.9,-99.9,-99.9,0,0,100,30.16,30.07,6,3,13,0.00
2013-12-10,84.1,78.4,74.0,-99.9,-99.9,-99.9,0,0,100,30.12,30.04,4,2,10,0.00
2013-12-11,84.3,76.7,71.6,-99.9,-99.9,-99.9,0,0,100,30.16,30.09,4,1,9,0.00
2013-12-12,79.6,73.0,70.1,-99.9,-99.9,-99.9,0,0,100,30.18,30.10,12,5,19,0.00
2013-12-13,78.6,73.7,70.6,-99.9,-99.9,-99.9,0,0,100,30.16,30.06,9,7,17,0.00
2013-12-14,82.8,77.8,74.9,-99.9,-99.9,-99.9,0,0,100,30.07,29.95,9,4,14,0.00
2013-12-15,84.5,77.1,71.1,-99.9,-99.9,-99.9,0,0,100,30.02,29.89,9,4,15,0.00
2013-12-16,73.9,68.2,62.4,-99.9,-99.9,-99.9,0,0,100,30.12,30.00,7,4,11,0.00
2013-12-17,77.7,68.2,59.0,-99.9,-99.9,-99.9,0,0,100,30.15,30.06,7,4,12,0.00
2013-12-18,77.0,66.8,60.2,-99.9,-99.9,-99.9,0,0,100,30.20,30.11,10,5,19,0.00
2013-12-19,78.6,71.9,62.3,-99.9,-99.9,-99.9,0,0,100,30.21,30.12,7,4,12,0.00
2013-12-20,81.4,77.4,73.5,-99.9,-99.9,-99.9,0,0,100,30.16,30.07,8,6,14,0.00
2013-12-21,83.4,78.3,76.3,-99.9,-99.9,-99.9,0,0,100,30.12,30.03,7,4,14,0.00
2013-12-22,83.6,78.7,74.6,-99.9,-99.9,-99.9,0,0,100,30.13,30.05,6,4,14,0.00
2013-12-23,84.0,78.2,70.3,-99.9,-99.9,-99.9,0,0,100,30.14,30.07,6,3,15,0.00
2013-12-24,83.4,72.4,67.3,-99.9,-99.9,-99.9,0,0,100,30.14,30.05,11,4,21,0.00
2013-12-25,77.2,73.4,71.1,-99.9,-99.9,-99.9,0,0,100,30.14,30.06,10,7,18,0.00
2013-12-26,79.4,75.3,72.1,-99.9,-99.9,-99.9,0,0,100,30.14,30.03,7,5,14,0.00
2013-12-27,81.6,76.6,74.7,-99.9,-99.9,-99.9,0,0,100,30.16,30.06,7,5,13,0.00
2013-12-28,80.5,76.6,74.9,-99.9,-99.9,-99.9,0,0,100,30.15,30.00,9,6,15,0.00
2013-12-29,81.4,77.6,74.7,-99.9,-99.9,-99.9,0,0,100,30.01,29.90,10,5,17,0.00
2013-12-30,78.5,73.2,69.6,-99.9,-99.9,-99.9,0,0,100,30.11,29.95,6,3,8,0.00
2013-12-31,79.0,72.9,67.8,-99.9,-99.9,-99.9,0,0,100,30.20,30.07,9,6,15,0.00
2014-1-1,81.1,76.4,74.0,-99.9,-99.9,-99.9,0,0,100,30.17,30.01,8,4,14,0.00
2014-1-2,84.7,77.8,72.3,-99.9,-99.9,-99.9,0,0,100,30.01,29.83,9,5,19,0.00